Flag for Austria Weather past 2 weeks in Leoben, Styria, Austria

Now
52 °F

Partly sunny.


Feels Like: 49 °F
Forecast: 41 / 54 °F
Wind: 8 mph from West

Location: Zeltweg

Current Time: Apr 27, 2015 at 8:29:55 AM

Latest Report: Apr 27, 2015 at 7:50 AM


Visibility: 19 mi

Pressure: 29.71 "Hg

Humidity: 82%

Dew point: 46 °F

Location of LeobenLocation

Historic Weather in Leoben — Graph

°F

Leoben temperature yesterday

Maximum temperature yesterday: 64 °F (at 11:50 AM)
Minimum temperature yesterday: 45 °F (at 5:50 AM)
Average temperature yesterday: 57 °F

Past Weeks' High & Low Weather Summary

 TemperatureHumidityPressure
High73 °F (Apr 16, 1:50 PM)100% (Apr 12, 7:20 AM)30.45 "Hg (Apr 12, 7:20 AM)
Low27 °F (Apr 19, 6:50 AM)14% (Apr 16, 5:50 PM)29.74 "Hg (Apr 27, 4:50 AM)
Average54 °F55%30.10 "Hg
* Reported Apr 12 7:20 AM — Apr 27 7:20 AM, Leoben, Weather by CustomWeather, © 2015

Note: Actual official high and low records may vary slightly from our data, if they occured in-between our weather recording intervals... More about our weather records

Advertising

Leoben weather history for previous 24 hours

 ConditionsComfort  
Time TempWeatherWind HumidityBarometerVisibility
7:20 AM
Mon, Apr 27
48 °FBroken clouds.1 mph87%29.74 "Hg19 mi
6:50 AM46 °FPassing clouds.2 mph93%29.74 "Hg19 mi
6:20 AM46 °FPartly cloudy.5 mph93%29.74 "Hg19 mi
5:50 AM48 °FPartly cloudy.2 mph87%29.74 "Hg19 mi
4:50 AM43 °FPartly cloudy.2 mph93%29.74 "Hg19 mi
10:50 PM
Sun, Apr 26
50 °FPassing clouds.2 mph94%29.83 "Hg12 mi
9:50 PM54 °FPassing clouds.2 mph94%29.83 "Hg12 mi
8:50 PM57 °FPartly sunny.6 mph72%29.80 "Hg16 mi
7:50 PM59 °FBroken clouds.7 mph68%29.80 "Hg19 mi
6:50 PM63 °FPartly sunny.3 mph56%29.80 "Hg22 mi
5:50 PM63 °FPartly sunny.1 mph56%29.80 "Hg22 mi
4:50 PM63 °FScattered clouds.3 mph56%29.80 "Hg22 mi
3:50 PM59 °FScattered clouds.2 mph68%29.86 "Hg19 mi
3:20 PM59 °FScattered clouds.3 mph72%29.86 "Hg19 mi
2:50 PM57 °FBroken clouds.3 mph72%29.86 "Hg12 mi
2:20 PM55 °FRain showers. Partly sunny.14 mph94%29.89 "Hg12 mi
1:50 PM61 °FSprinkles. Broken clouds.8 mph55%29.86 "Hg16 mi
1:20 PM64 °FSprinkles. Partly sunny.7 mph46%29.83 "Hg22 mi
12:50 PM64 °FPartly sunny.2 mph46%29.86 "Hg22 mi
12:20 PM64 °FPartly sunny.2 mph46%29.86 "Hg25 mi
11:50 AM64 °FPartly sunny.2 mph49%29.86 "Hg25 mi
11:20 AM63 °FPartly sunny.2 mph49%29.86 "Hg25 mi
10:50 AM61 °FPartly sunny.2 mph55%29.89 "Hg25 mi
10:20 AM57 °FPartly sunny.2 mph63%29.89 "Hg25 mi
9:50 AM55 °FScattered clouds.3 mph67%29.89 "Hg25 mi
9:20 AM55 °FScattered clouds.5 mph67%29.89 "Hg25 mi
8:50 AM55 °FScattered clouds.2 mph67%29.89 "Hg25 mi
8:20 AM52 °FScattered clouds.1 mph72%29.89 "Hg25 mi
Weather by CustomWeather, © 2015

See weather overviewHow to use our weather pages